Location: Newark
(53.7496°N, 2.4752°W)
Time: 18:09:06
(UTC+00:00)

N. Korean satellite - Visible Passes

Search period start: 15 September 2019 00:00
Search period end: 25 September 2019 00:00
Orbit: 455 x 508 km, 97.2° (Epoch: 15 September)

Date Brightness Start Highest point End Pass type
(mag) Time Alt. Az. Time Alt. Az. Time Alt. Az.
16 Sep 10.0 05:06:51 10° ENE 05:08:34 13° E 05:10:15 10° ESE visible
20 Sep 10.3 04:59:56 10° ENE 05:00:59 11° E 05:02:01 10° ESE visible
23 Sep 9.8 05:16:35 10° NE 05:18:53 17° E 05:21:10 10° SE visible
